TimeMST,TemperatureF,Dew PointF,Humidity,Sea Level PressureIn,VisibilityMPH,Wind Direction,Wind SpeedMPH,Gust SpeedMPH,PrecipitationIn,Events,Conditions,WindDirDegrees,DateUTC
12:56 AM,18.0,10.9,74,29.96,10.0,WNW,10.4,-,N/A,,Clear,300,2014-02-20 07:56:00
1:56 AM,21.9,10.9,63,29.95,10.0,West,18.4,-,N/A,,Clear,260,2014-02-20 08:56:00
2:56 AM,23.0,10.0,58,29.96,10.0,West,20.7,-,N/A,,Clear,260,2014-02-20 09:56:00
3:56 AM,23.0,10.0,58,29.96,10.0,West,21.9,-,N/A,,Clear,260,2014-02-20 10:56:00
4:56 AM,21.9,9.0,58,29.96,10.0,West,18.4,-,N/A,,Clear,260,2014-02-20 11:56:00
5:56 AM,24.1,10.9,57,29.95,10.0,West,21.9,-,N/A,,Clear,260,2014-02-20 12:56:00
6:56 AM,24.1,12.0,60,29.92,10.0,WSW,13.8,-,N/A,,Clear,240,2014-02-20 13:56:00
7:56 AM,27.0,10.9,51,29.89,10.0,WSW,26.5,33.4,N/A,,Clear,250,2014-02-20 14:56:00
8:56 AM,28.9,10.9,47,29.87,10.0,WSW,34.5,41.4,N/A,,Mostly Cloudy,250,2014-02-20 15:56:00
9:56 AM,30.0,10.9,45,29.86,10.0,WSW,21.9,34.5,N/A,,Overcast,250,2014-02-20 16:56:00
10:56 AM,30.9,12.9,47,29.84,10.0,SW,18.4,-,N/A,,Overcast,230,2014-02-20 17:56:00
11:56 AM,33.1,14.0,46,29.81,10.0,SW,19.6,-,N/A,,Mostly Cloudy,230,2014-02-20 18:56:00
12:56 PM,34.0,16.0,48,29.78,10.0,SW,20.7,-,N/A,,Mostly Cloudy,230,2014-02-20 19:56:00
1:56 PM,37.0,18.0,46,29.70,10.0,WSW,33.4,41.4,N/A,,Clear,250,2014-02-20 20:56:00
2:56 PM,37.0,19.0,48,29.70,10.0,WSW,26.5,35.7,N/A,,Clear,250,2014-02-20 21:56:00
3:56 PM,35.1,19.0,52,29.70,10.0,West,27.6,39.1,N/A,,Clear,260,2014-02-20 22:56:00
4:56 PM,33.1,19.9,59,29.72,10.0,West,20.7,27.6,N/A,,Clear,260,2014-02-20 23:56:00
5:56 PM,30.0,19.9,66,29.74,10.0,West,18.4,-,N/A,,Clear,270,2014-02-21 00:56:00
6:56 PM,27.0,21.0,78,29.77,10.0,West,15.0,-,N/A,,Clear,280,2014-02-21 01:56:00
7:56 PM,25.0,19.9,81,29.78,10.0,WNW,12.7,-,N/A,,Clear,290,2014-02-21 02:56:00
8:56 PM,23.0,19.0,85,29.79,10.0,West,9.2,-,N/A,,Clear,270,2014-02-21 03:56:00
9:56 PM,23.0,16.0,74,29.80,10.0,West,10.4,-,N/A,,Clear,280,2014-02-21 04:56:00
10:56 PM,23.0,16.0,74,29.80,10.0,WNW,10.4,-,N/A,,Scattered Clouds,290,2014-02-21 05:56:00
11:56 PM,26.1,18.0,71,29.78,10.0,WNW,11.5,-,N/A,,Overcast,290,2014-02-21 06:56:00